Starlink 31428

operational
NORAD ID: 59367 Int'l Des: 2024-060 Owner: SPXS Country: US Constellation: starlink
LEOCIRCULAR

关于 Starlink 31428

正在加载描述...

实时位置

正在加载3D地球...

即将过境

高度历史

Altitude vs Time

uPlot chart will show altitude changes over time

两行轨道根数

1 59367U 24060V 25351.03257536 .00001196 00000-0 52981-4 0 9995
2 59367 43.0022 6.4733 0000669 292.3903 67.6878 15.27582057 97421
Epoch: Dec 17, 2025 • Age: 15 hours

当前状态

高度 487.9 km
速度 7.62 km/s
星下点 -21.30°S, 116.46°W
发射日期 Mar 31, 2024
运行时间 1.7 years
类型 internet

技术详情

分类 Payload
质量 730.00 kg
干质量 700.00 kg
总质量 730.00 kg
长度 0.30 m
直径 4.10 m
跨度 29.00 m
形状 Box + pan
制造商 SPXS
平台类型 Starlink V2M
阶段状态 In Orbit
所有者/国家 SPXS/US

大型星座

Loading constellations...